Regional Weather Roundup
Issued by NWS Cleveland, OH

Home | Current Version | Previous Version | Text Only | Print | Product List | Glossary Off
Versions: 1 2 3 4 5 6 7 8 9 10 11 12 13 14 15 16 17 18 19 20 21 22 23 24 25 26 27 28 29 30 31 32 33 34 35 36 37 38 39 40 41 42 43 44 45 46 47 48 49 50

000
ASUS41 KCLE 270902
RWRCLE
OHIO REGIONAL WEATHER ROUNDUP
NATIONAL WEATHER SERVICE CLEVELAND, OH
400 AM EST SAT DEC 27 2014

NOTE: "FAIR" INDICATES FEW OR NO CLOUDS BELOW 12,000 FEET WITH NO
SIGNIFICANT WEATHER AND/OR OBSTRUCTIONS TO VISIBILITY.

OHZ001>008-015>018-024>027-034-035-043-044-271000-
   NORTHWEST OHIO

CITY           SKY/WX    TMP DP  RH WIND       PRES   REMARKS
DEFIANCE       CLOUDY    45  39  79 S8        30.13S
FINDLAY        CLOUDY    45  38  76 S9        30.13F
TOLEDO EXPRESS CLOUDY    44  38  79 SW7       30.12F
TOLEDO EXEC    MOCLDY    44  36  73 SW8       30.14S
LIMA           CLOUDY    47  36  65 S7        30.13F
$$

OHZ009>014-019>023-028>033-038-089-271000-
   NORTHEAST OHIO

CITY           SKY/WX    TMP DP  RH WIND       PRES   REMARKS
CLE-HOPKINS    CLOUDY    43  33  68 S9        30.18S
CLE-LAKEFRONT  CLOUDY    47  34  60 S12       30.15S
CUY CO. ARPT   NOT AVBL
LORAIN-ELYRIA  CLOUDY    41  34  76 S7        30.16S
ASHTABULA      CLOUDY    39  33  79 S7        30.17F
AKRON-CANTON   PTCLDY    37  30  75 SW7       30.18R
WOOSTER        CLOUDY    36  32  85 CALM      30.18S
MANSFIELD      CLOUDY    45  35  68 SW12      30.16S
YOUNGSTOWN     PTCLDY    37  30  75 SE3       30.17S
$$

OHZ042-051>053-060>062-070>072-077>081-271000-
  SOUTHWEST OHIO

CITY           SKY/WX    TMP DP  RH WIND       PRES   REMARKS
CINC-COVINGTON PTCLDY    36  30  79 S6        30.19S
CINC-LUNKEN    PTCLDY    33  33 100 CALM      30.22F
HAMILTON       PTCLDY    35  33  92 SE3       30.19F
DAYTON         CLOUDY    46  34  62 S10       30.16F
WRIGHT-PAT AFB MOCLDY    42  34  73 S7        30.17F
DAYTON GENERAL CLOUDY    44  34  67 S12       30.17F
WILMINGTON     PTCLDY    40  32  73 S7        30.19F
$$

OHZ036-037-039>041-045>050-054>059-063>069-073>076-082>088-271000-
  CENTRAL AND SOUTHEAST OHIO

CITY           SKY/WX    TMP DP  RH WIND       PRES   REMARKS
COLUMBUS       CLOUDY    37  33  85 SE3       30.20S
OSU AIRPORT    CLOUDY    40  34  79 SE3       30.18F
BOLTON FIELD   NOT AVBL
RICKENBACK AFB CLOUDY    37  32  82 CALM      30.20S
NEWARK         CLOUDY    34  31  88 CALM      30.20S
MARION         CLOUDY    43  34  70 SW8       30.17F
LANCASTER      MOCLDY    35  32  88 CALM      30.21S
ZANESVILLE     PTCLDY    34  30  85 S3        30.21R
NEW PHILLY     PTCLDY    33  29  85 SE3       30.21R
$$


USA.gov is the U.S. government's official web portal to all federal, state and local government web resources and services.